OneWeb SL0092

operational
NORAD ID: 45437 Int'l Des: 2020-020 Owner: ONEWEB Country: UK Constellation: oneweb
LEOCIRCULARPOLARONEWEB_TYPE

About OneWeb SL0092

Description loading...

Live Position

Loading 3D Globe...

Upcoming Passes

Altitude History

Altitude vs Time

uPlot chart will show altitude changes over time

Two-Line Element Set

1 45437U 20020P 25303.28910212 -.00000095 00000-0 -30360-3 0 9996
2 45437 87.8846 66.8424 0001502 91.7958 268.3342 13.11414918272656
Epoch: Oct 30, 2025 • Age: 14 hours

Current Status

Altitude 1247.2 km
Velocity 7.23 km/s
Sub-Earth Point -81.62°S, 94.56°W
Launch Date Mar 21, 2020
Age 5.6 years
Type internet

Technical Details

Classification Payload
Mass 148.00 kg
Dry Mass 140.00 kg
Total Mass 148.00 kg
Length 1.30 m
Diameter 1.00 m
Span 5.00 m
Shape Trapezoid+2 pan
Manufacturer ONEWUS
Bus Type ARROW
Phase Status In Orbit
Owner/State ONEWEB/UK

Large Constellations

Loading constellations...